Вернуться в каталог

FENGYUN 1C DEB

АктивенSSO
NORAD 38799·DEBRIS·🇨🇳 China

Запущен May 10, 1999 с Taiyuan Satellite Launch Center

Loading…

Ближайшие Пролёты (ближайшие 24 часа)

TLE

УстаревающийSource: Space-Track

Эпоха: Sep 4, 2026, 12:00 UTC

1 38799U 99025EUP 26247.50051080  .00001542  00000-0  34353-3 0  9994
2 38799  98.3857 327.0904 0158192 258.2663 100.0746 14.50980737678903

Отслеживайте FENGYUN 1C DEB в реальном времени с AllMySat

Download on the App Store